Wind_Speed
24 25 25 17 17 19 20 20 22 21 21 25 26 29 26 22 26 26 26 26 25 24 18 23 25 26 26 26 25 25 26 27 27 27 27 25 25 25 26 25 24 24 24 22
28 30 21 21 22 23 23 23 24 22 22 24 27 35 32 31 30 28 29 30 29 29 29 28 29 29 27 28 29 29 29 29 29 29 29 27 27 27 28 27 27 26 26 26
24 18 14 21 22 24 24 25 22 22 24 31 34 45 38 33 32 31 30 28 30 30 28 28 30 31 32 32 32 32 32 33 32 32 32 31 30 30 31 30 29 28 29 28
23 26 26 26 27 20 26 23 23 23 21 24 21 14 44 40 36 32 29 27 24 22 25 27 29 33 33 32 34 35 36 36 36 35 35 34 33 31 30 30 30 29 29 29
36 31 30 32 32 26 30 27 24 22 22 30 31 13 36 36 44 39 34 27 22 18 20 26 33 31 33 34 34 36 38 39 37 36 35 35 35 32 33 33 31 29 30 29
41 39 34 29 27 22 26 20 16 18 19 13 28 21 47 47 41 29 23 26 19 18 23 26 23 23 27 31 32 36 40 39 38 36 35 34 34 33 35 33 31 31 30 30
44 46 44 40 35 28 24 19 4 4 2 12 6 16 44 42 30 30 23 22 23 25 22 21 24 29 29 30 32 34 38 39 38 37 36 34 34 34 34 33 31 31 31 30
29 27 45 48 48 34 30 33 17 8 4 7 15 15 25 30 30 34 37 28 11 16 20 23 25 27 27 29 31 31 32 34 36 37 35 34 34 34 35 33 33 31 30 30
14 23 26 25 22 35 32 36 30 29 27 11 20 42 42 37 24 17 9 13 17 13 16 20 21 18 20 26 30 30 29 31 34 35 35 34 34 34 34 33 33 32 32 33
27 22 19 22 27 26 38 22 15 17 3 5 13 18 24 21 21 12 15 9 12 13 10 8 13 16 17 20 24 29 29 30 32 34 34 34 34 34 34 34 34 34 36 36
40 31 19 19 30 35 32 36 21 15 18 5 3 21 27 19 15 6 10 6 9 14 12 8 21 28 27 22 21 25 28 29 32 35 35 35 34 34 35 35 36 37 38 38
28 21 37 40 23 26 33 41 46 22 9 16 20 40 9 11 10 14 12 13 16 16 13 19 35 31 30 24 22 20 24 25 27 30 33 34 36 36 37 37 38 39 40 41
29 25 17 12 21 32 36 40 39 43 31 33 15 40 9 14 22 18 18 14 15 21 22 34 38 28 24 24 22 21 21 23 26 29 32 34 37 38 38 39 40 42 43 44
37 31 30 26 13 10 30 43 41 43 33 52 39 71 56 25 16 13 14 17 20 27 37 43 32 28 28 27 27 25 24 22 24 28 31 34 36 38 39 39 41 43 44 44
39 37 37 43 42 40 34 22 22 46 60 32 68 48 69 57 53 44 46 45 43 45 46 39 35 36 33 31 29 27 24 25 23 26 29 32 36 39 40 42 43 44 45 44
45 39 40 50 49 45 46 44 48 41 40 51 59 59 59 54 53 50 48 44 45 44 42 43 42 43 42 36 31 29 29 27 27 28 27 30 36 40 42 43 44 45 46 46
47 46 39 38 46 29 27 56 55 51 53 53 54 63 54 55 55 53 54 56 54 50 45 42 45 48 48 42 36 35 33 35 32 31 31 30 32 38 41 43 44 46 47 47
29 48 44 35 23 13 48 50 46 47 50 53 57 60 57 60 56 55 49 52 50 42 40 42 45 45 42 40 40 41 41 39 37 35 33 34 36 38 41 43 44 46 49 48
49 33 31 29 34 30 33 48 43 37 46 46 49 46 47 39 41 42 36 37 40 38 39 42 42 43 42 38 37 41 44 43 43 40 40 34 35 38 39 42 44 47 48 48
44 45 34 19 9 7 24 35 41 30 34 42 38 43 41 39 41 41 35 35 33 34 35 37 40 43 40 38 35 36 39 40 41 41 38 37 35 36 37 39 41 44 45 45
29 37 45 36 28 22 38 35 13 17 23 29 13 21 31 33 32 30 33 33 31 33 35 37 36 34 34 34 34 34 35 35 33 35 35 35 36 36 35 38 40 42 44 45
24 18 21 23 19 11 27 33 30 33 30 32 32 30 30 28 26 26 30 35 33 27 28 30 30 29 29 31 31 30 30 33 32 32 33 32 33 33 37 40 42 42 46 48
45 43 35 28 25 30 29 30 27 18 24 24 24 27 33 36 37 37 34 33 32 30 28 29 31 32 32 30 27 27 28 29 29 28 27 26 28 30 31 38 41 44 43 38
24 33 40 33 37 33 26 27 32 29 27 26 28 31 33 34 33 34 35 36 39 38 35 31 29 25 24 21 20 18 17 16 17 18 19 19 16 13 13 14 15 17 19 19
30 27 23 30 32 30 29 29 30 26 27 29 32 35 36 37 35 36 40 39 37 30 25 23 19 17 16 15 15 16 18 18 17 16 16 15 15 15 16 16 17 18 19 21
17 23 23 27 25 26 31 33 28 29 31 31 35 38 40 40 40 37 28 23 20 18 18 17 16 16 14 13 13 13 13 14 13 11 11 12 13 14 15 16 18 19 20 23
Wind_Direction
241 240 240 258 266 266 270 272 272 276 282 279 279 280 277 267 265 265 264 264 262 259 255 255 259 259 260 259 258 256 252 251 255 260 264 270 274 262 253 252 250 249 246 244
243 249 258 256 254 258 262 265 271 285 286 283 288 280 280 274 272 271 270 268 268 266 262 259 262 261 259 258 256 255 254 254 255 259 263 267 271 263 251 251 251 249 246 244
250 250 250 250 250 252 259 265 278 286 289 286 288 285 285 283 278 276 275 280 277 276 270 262 260 263 261 258 259 258 256 254 254 257 260 262 264 263 254 251 253 248 244 241
259 250 251 254 254 257 264 270 278 282 286 283 281 289 286 288 285 278 282 288 289 281 273 264 260 258 260 263 261 259 255 253 253 257 260 261 261 261 255 253 255 252 242 237
251 258 257 256 260 260 267 272 276 276 276 282 272 256 282 284 284 290 295 291 287 270 262 260 251 250 255 254 253 252 252 251 252 255 255 256 255 256 251 249 250 245 239 232
247 251 253 257 256 249 255 261 265 273 272 271 264 239 279 279 290 291 296 295 284 272 270 262 253 250 255 254 256 253 248 248 249 252 254 254 254 253 249 246 247 242 236 230
243 245 247 248 248 245 240 240 254 279 189 244 244 227 263 280 281 290 298 291 280 278 267 253 257 265 264 259 261 259 252 249 248 249 251 251 252 248 245 243 240 237 234 230
236 249 247 246 245 240 240 237 222 210 208 271 288 240 269 284 286 288 294 293 266 257 259 258 261 264 268 264 263 257 252 249 247 246 248 250 249 247 243 240 234 232 230 229
232 244 248 246 246 241 229 224 250 247 268 291 267 271 276 280 293 293 291 269 278 251 258 264 275 283 288 277 266 257 253 247 243 242 243 246 248 244 241 238 234 232 228 228
239 252 255 241 232 227 222 238 206 198 201 256 266 273 264 286 295 276 259 223 247 247 258 273 296 303 304 298 281 258 247 241 237 238 242 244 246 240 237 235 233 232 230 228
241 236 249 237 227 228 215 225 217 222 224 189 296 271 281 287 292 232 170 189 226 272 269 299 323 310 305 304 294 271 255 249 241 240 243 246 240 235 234 233 233 233 232 230
244 237 242 243 243 236 233 241 228 211 209 226 247 267 262 248 239 224 211 268 268 245 235 289 314 310 311 303 288 279 263 254 247 244 244 239 235 232 234 235 234 235 234 230
227 218 241 247 244 236 232 233 237 230 238 240 208 257 265 248 240 243 239 249 246 240 274 294 310 308 308 292 294 286 276 267 258 250 245 238 234 235 236 236 236 235 234 231
243 225 222 230 230 235 230 235 232 233 226 241 239 254 256 267 245 232 236 239 267 270 277 290 297 301 307 297 289 282 280 280 272 261 253 246 241 240 240 239 238 237 235 235
233 231 238 247 247 252 251 251 246 232 239 230 253 252 266 262 258 252 263 273 275 278 282 285 293 298 291 287 281 283 277 273 278 270 261 253 248 244 241 240 239 237 235 237
233 236 247 249 256 251 246 246 249 243 251 247 259 261 265 269 270 269 272 278 283 286 286 289 290 289 293 289 275 272 274 275 272 268 266 258 250 247 245 242 241 237 234 237
229 232 232 250 257 257 244 249 246 246 248 246 251 265 279 273 274 277 280 282 285 285 286 281 283 286 285 281 270 266 268 271 272 266 262 262 258 253 249 246 243 239 239 239
241 229 229 237 245 220 250 258 257 254 261 259 263 271 277 278 282 283 280 279 283 282 276 277 278 280 278 273 264 257 258 265 268 268 263 261 259 256 251 248 245 241 241 243
244 255 229 223 233 246 256 251 243 241 265 267 268 276 281 281 285 280 273 279 276 279 276 272 276 276 276 272 265 259 256 257 263 268 261 262 261 259 254 249 246 243 241 243
240 244 235 205 216 219 238 263 273 260 253 271 268 276 285 288 276 282 287 281 279 278 274 272 272 272 271 273 272 266 261 259 262 263 261 260 257 252 249 247 246 244 245 246
238 242 238 246 242 253 265 254 265 197 254 277 280 285 284 281 283 279 278 278 272 270 273 276 274 272 270 269 268 265 261 259 258 258 258 255 250 247 242 240 242 243 245 246
235 222 225 238 252 248 252 257 253 264 264 268 275 279 275 271 268 272 274 276 278 276 270 267 268 272 276 277 276 270 261 256 257 257 257 254 249 244 241 241 241 242 244 247
246 250 248 240 250 258 266 269 270 263 269 267 271 281 278 273 275 274 274 271 273 274 271 270 276 278 274 271 268 263 260 256 255 255 251 247 246 264 265 257 255 258 261 265
254 237 233 234 237 244 245 266 279 285 282 281 276 276 271 277 276 272 267 267 271 275 282 282 278 266 262 257 256 255 254 253 253 254 253 251 250 256 263 262 261 261 260 258
260 261 254 249 247 264 267 272 277 276 279 279 279 277 277 278 272 269 263 263 267 268 267 264 255 251 251 249 250 251 254 258 262 265 269 274 274 269 266 263 262 263 264 267
248 245 256 262 269 269 272 263 256 276 281 273 267 269 272 273 269 265 253 243 245 249 247 245 252 253 248 243 241 244 249 253 255 259 265 269 270 270 272 274 275 274 272 272
Height
3139 3139 3139 3145 3146 3146 3147 3147 3147 3148 3148 3145 3144 3140 3142 3145 3143 3143 3144 3144 3145 3145 3149 3148 3148 3148 3149 3150 3151 3152 3153 3155 3156 3157 3157 3158 3158 3159 3160 3160 3161 3163 3165 3165
3135 3132 3141 3141 3141 3141 3142 3142 3143 3144 3143 3139 3137 3130 3133 3135 3135 3137 3137 3137 3137 3139 3140 3141 3141 3141 3142 3143 3144 3145 3147 3148 3149 3150 3151 3151 3152 3152 3153 3155 3156 3157 3158 3160
3130 3133 3134 3135 3136 3136 3137 3137 3139 3140 3139 3133 3130 3118 3123 3127 3126 3128 3129 3130 3130 3130 3131 3132 3133 3133 3134 3135 3136 3138 3139 3140 3141 3143 3143 3144 3144 3145 3146 3148 3149 3151 3152 3154
3124 3127 3129 3131 3131 3135 3132 3135 3135 3135 3135 3129 3124 3115 3112 3117 3118 3120 3123 3122 3122 3121 3122 3123 3124 3124 3125 3127 3127 3128 3129 3131 3133 3135 3135 3136 3137 3138 3140 3141 3142 3144 3146 3147
3116 3119 3123 3123 3126 3131 3129 3130 3131 3131 3130 3125 3116 3123 3100 3106 3106 3113 3115 3114 3113 3113 3113 3112 3113 3114 3115 3115 3117 3118 3118 3120 3123 3125 3127 3127 3129 3131 3131 3132 3134 3137 3139 3141
3109 3112 3116 3118 3121 3125 3124 3125 3126 3126 3125 3118 3106 3113 3090 3094 3096 3101 3106 3106 3106 3105 3104 3104 3105 3106 3107 3107 3107 3107 3108 3110 3114 3116 3117 3119 3121 3122 3124 3126 3128 3130 3132 3135
3101 3102 3105 3110 3114 3117 3118 3121 3124 3124 3121 3105 3099 3103 3083 3086 3091 3093 3096 3099 3098 3097 3097 3098 3099 3099 3099 3099 3099 3099 3099 3102 3105 3107 3109 3111 3112 3113 3115 3118 3121 3123 3126 3129
3095 3096 3095 3097 3100 3107 3111 3114 3115 3118 3115 3098 3093 3084 3074 3081 3082 3085 3088 3089 3089 3090 3090 3090 3090 3090 3090 3090 3090 3090 3091 3093 3096 3098 3101 3102 3104 3105 3108 3111 3114 3117 3120 3124
3089 3088 3087 3090 3094 3100 3101 3102 3106 3109 3105 3103 3082 3072 3070 3075 3077 3077 3080 3083 3083 3083 3084 3085 3085 3085 3084 3082 3081 3082 3083 3085 3087 3089 3092 3094 3095 3098 3101 3104 3107 3110 3113 3116
3084 3084 3082 3083 3086 3089 3091 3094 3100 3102 3105 3105 3070 3066 3062 3067 3069 3071 3073 3075 3078 3079 3080 3080 3080 3080 3079 3077 3075 3074 3075 3076 3079 3081 3083 3086 3087 3090 3093 3096 3100 3103 3106 3108
3078 3079 3076 3077 3074 3076 3084 3084 3088 3090 3090 3087 3085 3056 3058 3061 3064 3066 3069 3073 3074 3075 3075 3076 3076 3074 3072 3071 3070 3069 3069 3069 3070 3073 3075 3077 3079 3082 3086 3089 3092 3095 3098 3101
3068 3070 3066 3067 3069 3072 3072 3072 3074 3077 3079 3081 3078 3050 3053 3057 3060 3064 3066 3067 3069 3070 3069 3068 3069 3068 3066 3065 3064 3063 3063 3063 3064 3065 3066 3068 3071 3074 3077 3081 3084 3087 3090 3093
3060 3061 3061 3060 3062 3061 3061 3063 3069 3071 3073 3068 3069 3041 3048 3053 3058 3060 3061 3063 3064 3064 3064 3063 3064 3062 3060 3060 3060 3059 3058 3058 3058 3057 3058 3060 3063 3066 3070 3073 3076 3078 3081 3084
3051 3048 3048 3045 3048 3051 3053 3054 3058 3062 3064 3041 3053 3026 3044 3048 3052 3055 3056 3059 3060 3060 3059 3058 3057 3056 3054 3053 3054 3053 3053 3052 3051 3051 3052 3054 3057 3060 3062 3065 3067 3070 3074 3076
3038 3037 3040 3038 3042 3044 3047 3048 3048 3047 3038 3052 3021 3045 3019 3041 3046 3049 3051 3051 3050 3050 3049 3050 3049 3048 3047 3046 3046 3046 3045 3046 3045 3044 3045 3047 3050 3052 3054 3056 3058 3060 3064 3068
3029 3027 3031 3028 3030 3033 3035 3038 3035 3037 3039 3039 3028 3031 3023 3032 3036 3036 3039 3039 3038 3039 3039 3039 3039 3037 3037 3038 3037 3037 3038 3038 3037 3038 3038 3039 3041 3042 3045 3047 3049 3052 3054 3057
3017 3017 3022 3017 3019 3024 3024 3012 3017 3023 3022 3025 3023 3003 3021 3022 3024 3027 3027 3026 3025 3026 3027 3027 3026 3024 3024 3025 3026 3027 3028 3029 3029 3029 3030 3032 3033 3034 3036 3038 3041 3044 3048 3049
3003 3003 3007 3006 3012 3004 2996 3002 3005 3007 3008 3013 3011 2999 3004 3009 3011 3013 3012 3011 3012 3013 3012 3011 3010 3010 3012 3011 3013 3014 3015 3018 3019 3020 3022 3024 3024 3024 3026 3029 3031 3034 3037 3040
2999 2999 2991 2992 2988 2992 2991 2987 2991 2995 2991 2999 2995 2995 2994 3001 3000 2995 3002 3003 3001 3000 2999 2998 2998 2998 2998 2999 3000 3001 3002 3005 3006 3008 3011 3013 3016 3016 3018 3019 3022 3024 3027 3030
2986 2987 2986 2979 2977 2977 2976 2983 2984 2989 2985 2985 2988 2988 2988 2991 2987 2983 2989 2991 2991 2990 2988 2988 2988 2988 2988 2990 2990 2991 2991 2993 2995 2996 2999 3001 3003 3005 3008 3011 3013 3015 3017 3021
2973 2972 2970 2969 2969 2967 2972 2974 2977 2981 2979 2974 2978 2982 2983 2979 2979 2979 2976 2976 2979 2979 2978 2977 2977 2979 2978 2979 2980 2981 2982 2983 2983 2984 2987 2989 2990 2992 2996 2999 3001 3004 3006 3009
2967 2966 2961 2965 2964 2960 2964 2968 2968 2971 2971 2973 2971 2973 2975 2973 2971 2971 2971 2969 2968 2969 2969 2968 2968 2969 2970 2971 2971 2972 2973 2973 2975 2976 2978 2979 2981 2982 2985 2987 2989 2993 2994 2996
2958 2957 2958 2960 2957 2959 2961 2962 2960 2961 2965 2965 2964 2967 2968 2967 2965 2965 2964 2963 2961 2962 2961 2960 2961 2961 2962 2962 2962 2964 2965 2966 2966 2968 2970 2972 2973 2975 2977 2979 2982 2984 2987 2989
2943 2947 2946 2950 2951 2954 2954 2954 2954 2954 2955 2955 2955 2955 2957 2958 2957 2956 2955 2955 2954 2954 2953 2952 2953 2954 2953 2953 2955 2957 2959 2961 2961 2962 2965 2967 2968 2970 2973 2975 2978 2980 2981 2982
2942 2941 2937 2939 2942 2945 2944 2943 2944 2945 2946 2946 2946 2946 2946 2947 2948 2948 2947 2946 2946 2946 2947 2947 2947 2948 2948 2948 2950 2952 2953 2955 2956 2957 2959 2961 2963 2966 2968 2971 2973 2974 2976 2977
2932 2935 2935 2933 2935 2935 2936 2935 2936 2937 2937 2937 2936 2936 2936 2937 2938 2937 2936 2937 2938 2939 2941 2940 2941 2941 2942 2943 2945 2947 2948 2949 2950 2951 2954 2957 2959 2961 2963 2965 2967 2969 2970 2971